User: anonymous   Login
Location: Unspecified
(0.0000°N, 0.0000°E)
Time: 20:24:06
(UTC+00:00)
Language:

Cosmos 2298 - Orbit

View from above orbital plane
View from above orbital plane
View from above satellite
View from above satellite

Ground track
Ground track

The orbit data is extracted from the following two-line orbital elements,

1 23431U 94083A   18174.64083200 +.00000002 +00000-0 +10906-4 0  9993
2 23431 074.0306 055.2895 0016750 332.7554 027.2715 14.30298103226822
Epoch (UTC): 23 June 2018 15:22:47
Eccentricity: 0.0016750
inclination: 74.0306°
perigee height: 779 km
apogee height: 803 km
right ascension of ascending node: 55.2895°
argument of perigee: 332.7554°
revolutions per day: 14.30298103
mean anomaly at epoch: 27.2715°
orbit number at epoch: 22682

The dashed part of the orbit path shows where the satellite is in the earth's shadow,  

DLR